Location: Ariel
(45.9570°N, 122.5700°W)
Time: 11:54:42
(UTC-07:00)

Transit 2A Rocket - Visible Passes

Search period start: 19 July 2019 00:00
Search period end: 29 July 2019 00:00
Orbit: 588 x 915 km, 66.7° (Epoch: 18 July)

Date Brightness Start Highest point End Pass type
(mag) Time Alt. Az. Time Alt. Az. Time Alt. Az.
19 Jul 7.6 03:01:41 10° SE 03:04:15 13° ESE 03:06:46 10° ENE visible
19 Jul 5.5 04:40:02 10° SSW 04:46:04 74° ESE 04:51:45 10° NE visible
20 Jul 6.0 03:58:35 13° S 04:03:37 47° ESE 04:09:04 10° NE visible
21 Jul 6.6 03:17:28 16° SSE 03:21:16 30° ESE 03:26:10 10° NE visible
21 Jul 5.6 04:57:48 10° SW 05:03:40 55° NW 05:09:12 10° NNE visible
22 Jul 7.2 02:36:19 14° SE 02:39:01 18° ESE 02:42:51 10° ENE visible
22 Jul 5.3 04:16:14 16° SW 04:21:04 84° WNW 04:26:45 10° NNE visible
23 Jul 7.6 01:55:55 10° ESE 01:56:54 10° ESE 01:57:51 10° E visible
23 Jul 5.5 03:35:01 25° SSW 03:38:35 64° ESE 03:44:11 10° NE visible
24 Jul 6.1 02:53:46 28° SSE 02:56:10 40° ESE 03:01:27 10° NE visible
24 Jul 6.0 04:33:40 12° WSW 04:38:48 42° NW 04:44:06 10° NNE visible
25 Jul 6.6 02:12:28 23° SE 02:13:51 25° ESE 02:18:26 10° ENE visible
25 Jul 5.4 03:52:23 23° SW 03:56:09 64° NW 04:01:42 10° NNE visible
26 Jul 7.2 01:31:08 15° ESE 01:31:39 15° ESE 01:34:50 10° ENE visible
26 Jul 5.2 03:11:02 36° SSW 03:13:35 85° ESE 03:19:13 10° NE visible
26 Jul 6.8 04:52:13 10° W 04:56:49 23° NW 05:01:11 10° NNE visible
27 Jul 5.5 02:29:40 43° SSE 02:31:06 54° ESE 02:36:36 10° NE visible
27 Jul 6.4 04:09:34 14° WSW 04:13:58 33° NW 04:18:56 10° NNE visible
28 Jul 6.1 01:48:15 33° ESE 01:48:44 34° ESE 01:53:47 10° NE visible
28 Jul 5.8 03:28:09 25° WSW 03:31:15 48° NW 03:36:36 10° NNE visible
28 Jul 7.4 05:12:13 10° WNW 05:15:08 14° NNW 05:17:57 10° N visible
